Printer-friendly version

IAU Minor Planet Center

Minor Planet Center

MPEC 2006-Q69 : 2006 QN111

The following Minor Planet Electronic Circular may be linked-to from your own Web pages, but must not otherwise be redistributed electronically.


Read MPEC 2006-Q68 Read MPEC 2006-Q70


M.P.E.C. 2006-Q69                                Issued 2006 Aug. 31, 19:59 UT

     The Minor Planet Electronic Circulars contain information on unusual
         minor planets and routine data on comets.  They are published
   on behalf of Commission 20 of the International Astronomical Union by the
          Minor Planet Center, Smithsonian Astrophysical Observatory,
                          Cambridge, MA 02138, U.S.A.

                  Supported in part by the Brinson Foundation
                  Supported in part by the TABASGO Foundation
             Prepared using the Tamkin Foundation Computer Network

                              MPC@CFA.HARVARD.EDU
          URL http://cfa-www.harvard.edu/iau/mpc.html  ISSN 1523-6714

                                  2006 QN111

Observations:
     K06QB1N* C2006 08 27.66510 03 44 48.88 -52 16 48.8          18.7 R EQ069E12
     K06QB1N  C2006 08 27.67635 03 44 41.64 -52 14 46.4          18.8 R EQ069E12
     K06QB1N FC2006 08 27.68760 03 44 34.28 -52 12 45.2          18.8 R EQ069E12
     K06QB1N  C2006 08 27.69885 03 44 26.99 -52 10 42.6          19.0 R EQ069E12
     K06QB1N  C2006 08 27.75316 03 43 51.53 -52 00 50.5          19.1 R EQ069E12
     K06QB1N  C2006 08 27.80494 03 43 17.73 -51 51 19.7          19.2 R EQ069E12
     K06QB1N FC2006 08 27.81411 03 43 11.70 -51 49 37.7          19.0 R EQ069E12
     K06QB1N  C2006 08 31.61046 03 23 42.76 -43 54 05.0          20.5 R EQ069E12
     K06QB1N  C2006 08 31.69445 03 23 23.70 -43 47 35.0          20.1 R EQ069E12
     K06QB1N  C2006 08 31.73409 03 23 14.10 -43 44 26.8          20.0 R EQ069E12
     K06QB1N  C2006 08 31.74177 03 23 12.19 -43 43 49.6          20.3 R EQ069E12
     K06QB1N  C2006 08 31.74538 03 23 11.37 -43 43 32.6          20.1 R EQ069E12
     K06QB1N  C2006 08 31.75297 03 23 09.51 -43 42 55.5          20.3 R EQ069E12

Observer details:
E12 Siding Spring Survey.  Observers R. H. McNaught, D. M. Burton.  Measurers
    E. C. Beshore, E. J. Christensen, G. J. Garradd, A. R. Gibbs, A. D. Grauer,
    R. E. Hill, R. A. Kowalski, S. M. Larson, R. H. McNaught.  0.5-m Uppsala
    Schmidt + CCD.

Orbital elements:
2006 QN111                                               Earth MOID = 0.0085 AU
Epoch 2006 Sept. 22.0 TT = JDT 2454000.5                MPC
M  10.36722              (2000.0)            P               Q
n   0.25167206     Peri.  171.77821     +0.71636910     +0.68731277
a   2.4845403      Node   143.83254     -0.65116355     +0.72040172
e   0.5975604      Incl.   11.73909     -0.25060195     +0.09285757
P   3.92           H   23.7           G   0.15           U   7
Residuals in seconds of arc
060827 E12  0.5+  0.4-    060827 E12  0.4+  0.3-    060831 E12  0.5-  0.1+
060827 E12  0.4+  0.3+    060827 E12  0.3-  0.2-    060831 E12  0.2+  0.3-
060827 E12  0.5-  0.4-    060831 E12  0.5-  0.1+    060831 E12  0.0   0.2+
060827 E12  0.5-  0.2+    060831 E12  0.7+  0.3-
060827 E12  0.0   0.0     060831 E12  0.0   0.3-

Ephemeris:
2006 QN111               a,e,i = 2.48, 0.60, 12                  q = 0.9999
Date    TT    R. A. (2000) Decl.     Delta      r     Elong.  Phase     V
2006 08 23    08 45.62   -75 34.5    0.0209   1.011    88.0    90.8    18.5
2006 08 25    04 37.80   -64 32.8    0.0292   1.015    97.3    81.0    18.9
2006 08 27    03 51.78   -54 35.2    0.0399   1.020   102.6    75.2    19.4
2006 08 29    03 34.64   -48 37.8    0.0515   1.025   106.1    71.1    19.8
2006 08 31    03 25.57   -44 48.5    0.0634   1.032   108.7    67.9    20.2
2006 09 02    03 19.78   -42 10.3    0.0756   1.038   110.9    65.2    20.5
2006 09 04    03 15.60   -40 14.6    0.0878   1.046   112.8    62.7    20.7
2006 09 06    03 12.29   -38 46.0    0.100    1.054   114.6    60.4    21.0
2006 09 08    03 09.49   -37 35.7    0.112    1.062   116.3    58.2    21.2
2006 09 10    03 06.97   -36 38.0    0.125    1.071   118.0    56.1    21.4
2006 09 12    03 04.62   -35 49.5    0.137    1.081   119.6    54.1    21.5
2006 09 14    03 02.34   -35 07.6    0.149    1.091   121.1    52.1    21.7
2006 09 16    03 00.09   -34 30.5    0.162    1.101   122.7    50.2    21.8
2006 09 18    02 57.83   -33 57.0    0.174    1.112   124.2    48.4    21.9
2006 09 20    02 55.54   -33 25.8    0.186    1.123   125.7    46.6    22.1
2006 09 22    02 53.23   -32 56.4    0.199    1.135   127.1    44.8    22.2

Timothy B. Spahr             (C) Copyright 2006 MPC           M.P.E.C. 2006-Q69

Read MPEC 2006-Q68 Read MPEC 2006-Q70


Our Web policy. Index to the CBAT/MPC/ICQ pages.


Valid HTML 4.01!